Weather History for KHWY - February, 2013

Change the Weather History Date:

Friday, February 22, 2013

  Actual Average (KHEF) Record (KHEF)
Temperature  
Mean Temperature 32 °F -  
Max Temperature 35 °F 46 °F 69 °F (1997)
Min Temperature 28 °F 25 °F 19 °F (1999)
Degree Days  
Heating Degree Days 34    
Moisture  
Dew Point 29 °F    
Average Humidity 85    
Maximum Humidity 100    
Minimum Humidity 68    
Precipitation  
Precipitation 0.00 in - - ()
Sea Level Pressure  
Sea Level Pressure 30.29 in    
Wind  
Wind Speed 2 mph (ESE)    
Max Wind Speed 9 mph    
Max Gust Speed -    
Visibility 10 miles    
Events Rain    
Averages and records for this station are not official NWS values.
T = Trace of Precipitation, MM = Missing Value Source: NWS Daily Summary

Daily Weather History Graph

Daily Weather History Graph

Search for Another Location

Airport or City:

Trip Planner

Search our weather history database for the weather conditions in past years. The results will help you decide how hot, cold, wet, or windy it might be!

Date:

Astronomy

Feb. 22, 2013 Rise Set
Actual Time 6:52 AM EST 5:56 PM EST
Civil Twilight 6:25 AM EST 6:23 PM EST
Nautical Twilight 5:54 AM EST 6:54 PM EST
Astronomical Twilight 5:24 AM EST 7:25 PM EST
Moon 3:07 PM EST (2/22) 4:34 AM EST (2/22)
Length of Visible Light 11h 58m
Length of Day
11h 04m
Waxing Gibbous, 90% of the Moon is Illuminated
Feb 22
Waxing Gibbous
Feb 25
Full
Mar 4
Last Quarter
Mar 11
New
Mar 19
First Quarter

Hourly Weather History & Observations

Time (EST) Temp. Windchill Dew Point Humidity Pressure Visibility Wind Dir Wind Speed Gust Speed Precip Events Conditions
12:15 AM 28.8 °F - 25.0 °F 86% 30.30 in 10.0 mi Calm Calm - N/A   Clear
12:35 AM 28.4 °F - 25.3 °F 88% 30.32 in 10.0 mi Calm Calm - N/A   Clear
1:15 AM 28.4 °F - 25.7 °F 90% 30.32 in 10.0 mi Calm Calm - N/A   Clear
1:35 AM 29.3 °F - 24.6 °F 83% 30.32 in 10.0 mi Calm Calm - N/A   Clear
1:55 AM 29.3 °F - 24.8 °F 83% 30.33 in 10.0 mi Calm Calm - N/A   Clear
2:15 AM 29.8 °F - 25.2 °F 83% 30.33 in 10.0 mi Calm Calm - N/A   Clear
2:35 AM 29.8 °F - 25.0 °F 82% 30.35 in 10.0 mi Calm Calm - N/A   Clear
2:55 AM 30.0 °F - 25.5 °F 83% 30.35 in 10.0 mi Calm Calm - N/A   Clear
3:15 AM 31.1 °F - 24.3 °F 76% 30.36 in 10.0 mi Calm Calm - N/A   Clear
3:35 AM 30.7 °F - 24.8 °F 79% 30.36 in 10.0 mi Calm Calm - N/A   Clear
3:55 AM 31.5 °F - 25.0 °F 77% 30.36 in 10.0 mi Calm Calm - N/A   Clear
4:35 AM 30.6 °F - 27.1 °F 87% 30.35 in 10.0 mi Calm Calm - N/A   Clear
4:55 AM 31.1 °F 27.7 °F 25.3 °F 79% 30.31 in 10.0 mi ENE 3.5 mph - N/A   Clear
5:15 AM 31.3 °F - 24.6 °F 76% 30.34 in 10.0 mi Calm Calm - N/A   Clear
5:35 AM 32.0 °F - 24.1 °F 73% 30.33 in 10.0 mi Calm Calm - N/A   Clear
5:55 AM 32.0 °F - 24.6 °F 74% 30.33 in 10.0 mi Calm Calm - N/A   Mostly Cloudy
6:15 AM 32.0 °F - 24.6 °F 74% 30.34 in 10.0 mi Calm Calm - N/A   Overcast
6:35 AM 32.0 °F - 24.6 °F 74% 30.35 in 10.0 mi Calm Calm - N/A   Overcast
6:55 AM 32.0 °F 28.7 °F 24.6 °F 74% 30.34 in 10.0 mi NE 3.5 mph - N/A   Overcast
7:15 AM 32.0 °F - 24.6 °F 74% 30.36 in 10.0 mi Calm Calm - N/A   Overcast
7:35 AM 32.2 °F 27.7 °F 24.4 °F 73% 30.35 in 10.0 mi ENE 4.6 mph - N/A   Overcast
7:55 AM 32.4 °F 27.9 °F 24.4 °F 73% 30.34 in 10.0 mi NE 4.6 mph - N/A   Overcast
8:35 AM 32.9 °F 27.5 °F 24.6 °F 72% 30.34 in 10.0 mi NE 5.8 mph - N/A   Overcast
8:55 AM 33.6 °F 26.2 °F 24.8 °F 70% 30.33 in 10.0 mi ENE 9.2 mph - N/A   Overcast
9:15 AM 34.0 °F 27.2 °F 25.2 °F 70% 30.32 in 10.0 mi East 8.1 mph - N/A   Overcast
9:35 AM 34.7 °F 29.6 °F 25.7 °F 70% 30.32 in 10.0 mi ESE 5.8 mph - N/A   Overcast
9:55 AM 34.7 °F 30.6 °F 25.7 °F 70% 30.32 in 10.0 mi ESE 4.6 mph - N/A   Overcast
10:15 AM 35.2 °F 30.3 °F 25.9 °F 69% 30.32 in 10.0 mi SE 5.8 mph - N/A   Overcast
10:35 AM 35.2 °F 30.3 °F 25.7 °F 68% 30.33 in 10.0 mi SSE 5.8 mph - N/A   Overcast
10:55 AM 34.9 °F 29.9 °F 27.0 °F 73% 30.33 in 10.0 mi SSE 5.8 mph - N/A Rain Light Rain
11:15 AM 34.3 °F 28.4 °F 28.6 °F 79% 30.33 in 10.0 mi SSE 6.9 mph - N/A   Drizzle
11:35 AM 34.7 °F 31.8 °F 28.8 °F 79% 30.33 in 10.0 mi South 3.5 mph - N/A Rain Light Rain
11:55 AM 34.7 °F 30.6 °F 29.1 °F 80% 30.32 in 10.0 mi SSW 4.6 mph - N/A Rain Light Rain
12:15 PM 34.0 °F 31.0 °F 30.9 °F 89% 30.31 in 5.0 mi South 3.5 mph - N/A Rain Light Rain
12:35 PM 34.2 °F 31.2 °F 31.5 °F 90% 30.30 in 10.0 mi SSE 3.5 mph - N/A   Overcast
12:55 PM 34.0 °F 31.0 °F 31.1 °F 89% 30.31 in 10.0 mi South 3.5 mph - N/A   Overcast
1:15 PM 34.0 °F 28.8 °F 31.5 °F 90% 30.30 in 10.0 mi SE 5.8 mph - N/A   Overcast
1:35 PM 34.0 °F - 31.6 °F 91% 30.29 in 10.0 mi Calm Calm - N/A   Overcast
1:55 PM 34.0 °F 29.8 °F 31.6 °F 91% 30.28 in 10.0 mi SE 4.6 mph - N/A   Overcast
2:15 PM 34.9 °F 29.9 °F 31.8 °F 89% 30.28 in 10.0 mi SE 5.8 mph - N/A   Overcast
2:35 PM 35.1 °F 31.0 °F 32.0 °F 89% 30.26 in 10.0 mi SE 4.6 mph - N/A   Overcast
2:55 PM 35.1 °F 32.2 °F 32.0 °F 89% 30.27 in 10.0 mi SE 3.5 mph - N/A   Overcast
3:15 PM 35.4 °F 32.6 °F 32.0 °F 87% 30.26 in 10.0 mi ESE 3.5 mph - N/A   Overcast
3:35 PM 35.4 °F 32.6 °F 32.0 °F 87% 30.26 in 10.0 mi SE 3.5 mph - N/A   Overcast
3:55 PM 35.6 °F 30.7 °F 32.0 °F 87% 30.26 in 10.0 mi East 5.8 mph - N/A   Overcast
4:15 PM 35.4 °F 30.5 °F 32.0 °F 87% 30.26 in 10.0 mi ESE 5.8 mph - N/A   Overcast
4:35 PM 35.2 °F 31.2 °F 32.4 °F 89% 30.26 in 10.0 mi East 4.6 mph - N/A   Overcast
4:55 PM 35.1 °F 28.6 °F 32.9 °F 92% 30.25 in 10.0 mi ESE 8.1 mph - N/A   Overcast
5:15 PM 34.7 °F 29.6 °F 32.5 °F 92% 30.25 in 10.0 mi ESE 5.8 mph - N/A   Overcast
5:35 PM 34.7 °F 30.6 °F 32.2 °F 91% 30.25 in 10.0 mi East 4.6 mph - N/A   Overcast
5:55 PM 34.3 °F 28.4 °F 32.4 °F 92% 30.25 in 10.0 mi ESE 6.9 mph - N/A   Overcast
6:15 PM 34.2 °F 29.0 °F 32.5 °F 94% 30.24 in 10.0 mi East 5.8 mph - N/A   Overcast
6:35 PM 34.3 °F 29.2 °F 32.9 °F 94% 30.24 in 10.0 mi ESE 5.8 mph - N/A   Overcast
6:55 PM 34.2 °F 29.0 °F 32.9 °F 95% 30.25 in 10.0 mi ESE 5.8 mph - N/A   Overcast
7:15 PM 34.2 °F 30.0 °F 32.9 °F 95% 30.24 in 10.0 mi East 4.6 mph - N/A   Overcast
7:35 PM 34.2 °F 30.0 °F 32.9 °F 95% 30.24 in 10.0 mi East 4.6 mph - N/A   Overcast
7:55 PM 34.2 °F 30.0 °F 32.9 °F 95% 30.24 in 10.0 mi ESE 4.6 mph - N/A   Overcast
8:15 PM 34.3 °F 30.2 °F 33.3 °F 96% 30.24 in 10.0 mi ESE 4.6 mph - N/A   Overcast
8:35 PM 34.3 °F 30.2 °F 33.3 °F 96% 30.23 in 10.0 mi ESE 4.6 mph - N/A   Overcast
8:55 PM 34.3 °F 30.2 °F 33.3 °F 96% 30.23 in 10.0 mi ESE 4.6 mph - N/A   Overcast
9:15 PM 34.3 °F 31.4 °F 33.4 °F 97% 30.23 in 10.0 mi ESE 3.5 mph - N/A   Overcast
9:35 PM 34.7 °F 30.6 °F 33.4 °F 95% 30.23 in 10.0 mi ESE 4.6 mph - N/A   Overcast
9:55 PM 34.7 °F 31.8 °F 33.8 °F 97% 30.23 in 10.0 mi ESE 3.5 mph - N/A   Overcast
10:15 PM 34.7 °F 31.8 °F 33.8 °F 97% 30.22 in 10.0 mi SE 3.5 mph - N/A   Overcast
10:35 PM 34.7 °F 31.8 °F 33.8 °F 97% 30.22 in 10.0 mi SE 3.5 mph - N/A   Overcast
10:55 PM 34.7 °F - 34.2 °F 98% 30.21 in 10.0 mi Calm Calm - N/A   Overcast
11:15 PM 34.7 °F 30.6 °F 34.3 °F 99% 30.21 in 10.0 mi SE 4.6 mph - N/A   Overcast
11:35 PM 34.7 °F - 34.7 °F 100% 30.21 in 7.0 mi Calm Calm - N/A   Overcast
11:55 PM 34.7 °F - 34.7 °F 100% 30.20 in 10.0 mi Calm Calm - N/A   Overcast